Park Rapids, MN

8:04 AM CDT on August 23, 2017 (GMT -0500)
Park Rapids Municipal

Weather History for KPKD - March, 2013

Change the Weather History Date:

Saturday, March 23, 2013

  Actual Average Record
Temperature  
Mean Temperature 20 °F -  
Max Temperature 35 °F 38 °F 68 °F (2003)
Min Temperature 6 °F 16 °F -24 °F (1974)
Degree Days  
Heating Degree Days 44    
Moisture  
Dew Point 12 °F    
Average Humidity 70    
Maximum Humidity 83    
Minimum Humidity 48    
Precipitation  
Precipitation 0.00 in - - ()
Sea Level Pressure  
Sea Level Pressure 30.17 in    
Wind  
Wind Speed 3 mph (WNW)    
Max Wind Speed 12 mph    
Max Gust Speed -    
Visibility 10 miles    
Events      
Averages and records for this station are not official NWS values.
T = Trace of Precipitation, MM = Missing Value Source: NWS Daily Summary

Daily Weather History Graph

Daily Weather History Graph

Search for Another Location

Airport or City:

Trip Planner

Search our weather history database for the weather conditions in past years. The results will help you decide how hot, cold, wet, or windy it might be!

Date:

Astronomy

Mar. 23, 2013 Rise Set
Actual Time 7:16 AM CDT 7:37 PM CDT
Civil Twilight 6:46 AM CDT 8:07 PM CDT
Nautical Twilight 6:10 AM CDT 8:43 PM CDT
Astronomical Twilight 5:33 AM CDT 9:21 PM CDT
Moon 3:53 PM CDT 5:06 AM CDT
Length of Visible Light 13h 21m
Length of Day
12h 20m
Waxing Gibbous, 85% of the Moon is Illuminated
Mar 23
Waxing Gibbous
Mar 27
Full
Apr 2
Last Quarter
Apr 10
New
Apr 18
First Quarter

Hourly Weather History & Observations

Time (CDT) Temp. Windchill Dew Point Humidity Pressure Visibility Wind Dir Wind Speed Gust Speed Precip Events Conditions
12:53 AM 12.0 °F 5.9 °F 5.0 °F 73% 30.14 in 10.0 mi NW 3.5 mph - N/A   Clear
1:53 AM 9.0 °F 0.6 °F 3.0 °F 77% 30.14 in 10.0 mi WNW 4.6 mph - N/A   Clear
2:53 AM 8.1 °F - 1.9 °F 76% 30.14 in 10.0 mi Calm Calm - N/A   Clear
3:53 AM 8.1 °F - 1.9 °F 76% 30.14 in 10.0 mi Calm Calm - N/A   Clear
4:53 AM 7.0 °F - 1.9 °F 80% 30.16 in 10.0 mi Calm Calm - N/A   Scattered Clouds
5:53 AM 8.1 °F - 1.9 °F 76% 30.15 in 10.0 mi Calm Calm - N/A   Clear
6:53 AM 6.1 °F -0.9 °F 1.9 °F 83% 30.18 in 10.0 mi West 3.5 mph - N/A   Overcast
7:53 AM 10.0 °F 3.6 °F 5.0 °F 80% 30.19 in 10.0 mi West 3.5 mph - N/A   Overcast
8:53 AM 8.1 °F - 3.0 °F 80% 30.20 in 10.0 mi Calm Calm - N/A   Clear
9:53 AM 15.1 °F 9.4 °F 8.1 °F 74% 30.20 in 10.0 mi WSW 3.5 mph - N/A   Mostly Cloudy
10:53 AM 21.0 °F - 12.9 °F 71% 30.19 in 10.0 mi Calm Calm - N/A   Mostly Cloudy
11:53 AM 26.1 °F 20.5 °F 18.0 °F 71% 30.19 in 10.0 mi SW 4.6 mph - N/A   Clear
12:53 PM 30.0 °F 26.5 °F 19.9 °F 66% 30.17 in 10.0 mi WSW 3.5 mph - N/A   Clear
1:53 PM 33.1 °F 30.0 °F 19.9 °F 59% 30.16 in 10.0 mi West 3.5 mph - N/A   Clear
2:53 PM 34.0 °F 31.0 °F 17.1 °F 50% 30.14 in 10.0 mi WSW 3.5 mph - N/A   Clear
3:53 PM 35.1 °F - 17.1 °F 48% 30.14 in 10.0 mi Calm Calm - N/A   Partly Cloudy
4:53 PM 34.0 °F 31.0 °F 19.9 °F 56% 30.13 in 10.0 mi West 3.5 mph - N/A   Overcast
5:53 PM 33.1 °F 24.4 °F 21.0 °F 61% 30.15 in 10.0 mi West 11.5 mph - N/A   Overcast
6:53 PM 30.9 °F 22.2 °F 19.9 °F 64% 30.16 in 10.0 mi WNW 10.4 mph - N/A   Overcast
7:53 PM 28.9 °F 20.4 °F 19.9 °F 69% 30.18 in 10.0 mi WNW 9.2 mph - N/A   Overcast
8:53 PM 27.0 °F 17.3 °F 19.0 °F 72% 30.19 in 10.0 mi NW 10.4 mph - N/A   Mostly Cloudy
9:53 PM 23.0 °F 13.9 °F 17.1 °F 78% 30.19 in 10.0 mi NW 8.1 mph - N/A   Clear
10:53 PM 25.0 °F 17.1 °F 17.1 °F 72% 30.19 in 10.0 mi NNW 6.9 mph - N/A   Overcast
11:53 PM 26.1 °F 17.6 °F 17.1 °F 69% 30.17 in 10.0 mi North 8.1 mph - N/A   Overcast